Weather History for Rice Lake, WI

Change the Weather History Date:

Friday, March 15, 2013

  Actual Average Record
Temperature  
Mean Temperature 26 °F -  
Max Temperature 32 °F 34 °F 60 °F (2012)
Min Temperature 19 °F 17 °F -5 °F (1997)
Degree Days  
Heating Degree Days 40    
Moisture  
Dew Point 22 °F    
Average Humidity 85    
Maximum Humidity 100    
Minimum Humidity 60    
Precipitation  
Precipitation 0.04 in - - ()
Sea Level Pressure  
Sea Level Pressure 29.93 in    
Wind  
Wind Speed 4 mph (NNE)    
Max Wind Speed 18 mph    
Max Gust Speed 18 mph    
Visibility 4 miles    
Events Fog , Snow    
Averages and records for this station are not official NWS values.
T = Trace of Precipitation, MM = Missing Value Source: NWS Daily Summary

Daily Weather History Graph

Daily Weather History Graph

Search for Another Location

Airport:

Trip Planner

Search our weather history database for the weather conditions in past years. The results will help you decide how hot, cold, wet, or windy it might be!

Date:

Astronomy

Mar. 15, 2013 Rise Set
Actual Time 7:19 AM CDT 7:13 PM CDT
Civil Twilight 6:49 AM CDT 7:42 PM CDT
Nautical Twilight 6:15 AM CDT 8:17 PM CDT
Astronomical Twilight 5:40 AM CDT 8:52 PM CDT
Moon 8:57 AM CDT (3/15) 11:41 PM CDT (3/15)
Length of Visible Light 12h 53m
Length of Day
11h 54m
Waxing Crescent, 15% of the Moon is Illuminated
Mar 15
Waxing Crescent
Mar 19
First Quarter
Mar 27
Full
Apr 2
Last Quarter
Apr 10
New

Hourly Weather History & Observations

Time (CDT) Temp. Windchill Dew Point Humidity Pressure Visibility Wind Dir Wind Speed Gust Speed Precip Events Conditions
12:15 AM 21.2 °F - 21.2 °F 100% 30.01 in 0.2 mi Calm Calm - N/A Fog Light Freezing Fog
12:35 AM 21.2 °F - 19.4 °F 93% 30.00 in 2.0 mi Calm Calm - N/A   Clear
12:55 AM 21.2 °F - 21.2 °F 100% 30.00 in 1.2 mi Calm Calm - N/A   Mist
1:15 AM 21.2 °F - 19.4 °F 93% 29.99 in 0.5 mi Calm Calm - N/A Fog Light Freezing Fog
1:35 AM 21.2 °F - 21.2 °F 100% 29.97 in 1.5 mi Calm Calm - N/A   Mist
1:55 AM 21.2 °F - 19.4 °F 93% 29.97 in 3.0 mi Calm Calm - N/A   Clear
2:15 AM 21.2 °F - 21.2 °F 100% 29.97 in 2.0 mi Calm Calm - N/A   Clear
2:35 AM 21.2 °F - 21.2 °F 100% 29.96 in 2.5 mi Calm Calm - N/A   Clear
2:55 AM 21.2 °F - 19.4 °F 93% 29.95 in 2.0 mi Calm Calm - N/A   Clear
3:15 AM 19.4 °F - 19.4 °F 100% 29.95 in 2.5 mi Calm Calm - N/A   Clear
3:35 AM 21.2 °F - 19.4 °F 93% 29.95 in 1.8 mi Calm Calm - N/A   Mist
3:55 AM 21.2 °F - 19.4 °F 93% 29.95 in 2.5 mi Calm Calm - N/A   Clear
4:15 AM 21.2 °F - 19.4 °F 93% 29.94 in 2.5 mi Calm Calm - N/A   Mostly Cloudy
4:35 AM 21.2 °F - 19.4 °F 93% 29.94 in 2.5 mi Calm Calm - N/A   Overcast
4:55 AM 21.2 °F - 21.2 °F 100% 29.94 in 2.5 mi Calm Calm - N/A   Overcast
5:15 AM 23.0 °F - 21.2 °F 93% 29.94 in 2.5 mi Calm Calm - N/A   Overcast
5:35 AM 23.0 °F - 23.0 °F 100% 29.94 in 3.0 mi Calm Calm - N/A   Overcast
5:55 AM 24.8 °F - 23.0 °F 93% 29.95 in 1.8 mi Calm Calm - N/A Snow Light Snow
6:15 AM 24.8 °F - 23.0 °F 93% 29.95 in 0.8 mi Calm Calm - N/A Snow Light Snow
6:35 AM 26.6 °F - 24.8 °F 93% 29.95 in 1.0 mi Calm Calm - N/A Snow Light Snow
6:55 AM 26.6 °F - 26.6 °F 100% 29.95 in 1.0 mi Calm Calm - N/A Snow Light Snow
7:15 AM 26.6 °F - 26.6 °F 100% 29.95 in 1.0 mi Calm Calm - 0.01 in Snow Light Snow
7:35 AM 26.6 °F - 26.6 °F 100% 29.95 in 1.0 mi Calm Calm - 0.01 in Snow Light Snow
7:55 AM 28.4 °F 23.3 °F 26.6 °F 93% 29.94 in 0.8 mi NNE 4.6 mph - 0.01 in Snow Light Snow
8:15 AM 28.4 °F 24.6 °F 26.6 °F 93% 29.94 in 1.0 mi NNE 3.5 mph - N/A Snow Light Snow
8:35 AM 28.4 °F 23.3 °F 26.6 °F 93% 29.94 in 1.2 mi NNE 4.6 mph - N/A Snow Light Snow
8:55 AM 28.4 °F 24.6 °F 28.4 °F 100% 29.94 in 1.5 mi North 3.5 mph - N/A Snow Light Snow
9:15 AM 28.4 °F 23.3 °F 28.4 °F 100% 29.94 in 1.0 mi North 4.6 mph - N/A Snow Light Snow
9:35 AM 28.4 °F 22.2 °F 28.4 °F 100% 29.94 in 1.0 mi North 5.8 mph - 0.01 in Snow Light Snow
9:55 AM 30.2 °F 21.9 °F 28.4 °F 93% 29.94 in 2.0 mi North 9.2 mph - 0.01 in Snow Light Snow
10:55 AM 32.0 °F 23.0 °F 26.6 °F 80% 29.95 in 2.5 mi NNE 11.5 mph - N/A Snow Light Snow
11:15 AM 32.0 °F 23.0 °F 26.6 °F 80% 29.94 in 4.0 mi NNE 11.5 mph - N/A   Haze
11:35 AM 32.0 °F 23.0 °F 26.6 °F 80% 29.94 in 7.0 mi NNE 11.5 mph - N/A   Overcast
11:55 AM 32.0 °F 23.0 °F 24.8 °F 75% 29.94 in 10.0 mi NE 11.5 mph - N/A   Overcast
12:15 PM 32.0 °F 24.8 °F 24.8 °F 75% 29.94 in 10.0 mi NE 8.1 mph - N/A   Overcast
12:35 PM 32.0 °F 23.0 °F 23.0 °F 69% 29.93 in 10.0 mi NNE 11.5 mph - N/A   Overcast
12:55 PM 32.0 °F 22.5 °F 23.0 °F 69% 29.94 in 10.0 mi NNE 12.7 mph - N/A   Overcast
1:15 PM 32.0 °F 22.5 °F 23.0 °F 69% 29.94 in 10.0 mi NNE 12.7 mph - N/A   Overcast
1:35 PM 32.0 °F 21.6 °F 23.0 °F 69% 29.94 in 10.0 mi NNE 15.0 mph - N/A   Overcast
1:55 PM 32.0 °F 22.5 °F 23.0 °F 69% 29.93 in 7.0 mi NNE 12.7 mph - N/A Snow Light Snow
2:15 PM 32.0 °F 22.5 °F 23.0 °F 69% 29.92 in 10.0 mi NE 12.7 mph - N/A   Overcast
2:35 PM 32.0 °F 23.6 °F 21.2 °F 64% 29.92 in 10.0 mi NNE 10.4 mph 17.3 mph N/A   Overcast
2:55 PM 32.0 °F 24.2 °F 21.2 °F 64% 29.91 in 10.0 mi NNE 9.2 mph - N/A   Overcast
3:15 PM 32.0 °F 24.2 °F 21.2 °F 64% 29.90 in 10.0 mi NNE 9.2 mph - N/A   Overcast
3:35 PM 32.0 °F 24.8 °F 21.2 °F 64% 29.90 in 10.0 mi ENE 8.1 mph - N/A   Overcast
3:55 PM 32.0 °F 24.8 °F 19.4 °F 60% 29.90 in 10.0 mi NE 8.1 mph - N/A   Overcast
4:15 PM 32.0 °F 25.6 °F 21.2 °F 64% 29.89 in 10.0 mi NE 6.9 mph - N/A   Overcast
4:35 PM 32.0 °F 25.6 °F 19.4 °F 60% 29.89 in 10.0 mi ENE 6.9 mph - N/A   Overcast
4:55 PM 32.0 °F 24.8 °F 21.2 °F 64% 29.89 in 10.0 mi NNE 8.1 mph - N/A   Overcast
5:15 PM 30.2 °F 23.4 °F 19.4 °F 64% 29.88 in 10.0 mi NNE 6.9 mph - N/A   Overcast
5:35 PM 32.0 °F 24.2 °F 19.4 °F 60% 29.88 in 10.0 mi NE 9.2 mph - N/A   Overcast
5:55 PM 30.2 °F 20.8 °F 21.2 °F 69% 29.87 in 5.0 mi NNE 11.5 mph - N/A   Haze
6:15 PM 30.2 °F 19.8 °F 21.2 °F 69% 29.87 in 10.0 mi North 13.8 mph - N/A   Overcast
6:35 PM 28.4 °F 18.5 °F 23.0 °F 80% 29.88 in 2.5 mi North 11.5 mph - N/A Snow Light Snow
6:55 PM 28.4 °F 18.0 °F 23.0 °F 80% 29.88 in 2.0 mi NNE 12.7 mph - N/A Snow Light Snow
7:15 PM 26.6 °F 15.7 °F 23.0 °F 86% 29.88 in 1.0 mi North 12.7 mph - N/A Snow Light Snow
7:35 PM 26.6 °F 14.7 °F 23.0 °F 86% 29.88 in 0.8 mi NNE 15.0 mph - N/A Snow Light Snow
7:55 PM 26.6 °F 14.7 °F 23.0 °F 86% 29.88 in 0.8 mi North 15.0 mph - N/A Snow Light Snow
8:15 PM 24.8 °F 13.4 °F 23.0 °F 93% 29.89 in 1.2 mi North 12.7 mph - N/A Snow Light Snow
8:35 PM 24.8 °F 11.1 °F 21.2 °F 86% 29.88 in 0.8 mi North 18.4 mph - N/A Snow Light Snow
8:55 PM 23.0 °F 10.1 °F 21.2 °F 93% 29.88 in 0.5 mi NNE 15.0 mph - N/A Snow Snow
9:15 PM 23.0 °F 10.1 °F 21.2 °F 93% 29.89 in 1.0 mi North 15.0 mph 18.4 mph 0.01 in Snow Light Snow
9:35 PM 23.0 °F 11.1 °F 21.2 °F 93% 29.89 in 0.8 mi North 12.7 mph - 0.01 in Snow Light Snow
9:55 PM 23.0 °F 11.7 °F 21.2 °F 93% 29.89 in 1.8 mi NNE 11.5 mph 15.0 mph 0.01 in Snow Light Snow
10:15 PM 23.0 °F 12.4 °F 21.2 °F 93% 29.89 in 1.2 mi NNE 10.4 mph - N/A Snow Light Snow
10:35 PM 23.0 °F 13.1 °F 21.2 °F 93% 29.90 in 2.5 mi NNE 9.2 mph - N/A Snow Light Snow
10:55 PM 23.0 °F 12.4 °F 21.2 °F 93% 29.90 in 2.0 mi North 10.4 mph - N/A Snow Light Snow
11:15 PM 23.0 °F 12.4 °F 19.4 °F 86% 29.90 in 2.5 mi North 10.4 mph - 0.01 in Snow Light Snow
11:35 PM 23.0 °F 11.7 °F 19.4 °F 86% 29.90 in 4.0 mi NNE 11.5 mph - 0.01 in Snow Light Snow